Location: Kelshall
(52.0000°N, 0.0500°W)
Time: 20:29:11
(UTC+00:00)

ATLAS 2AS CENTAUR R/B - Pass Details

Date: 26 January 2021
Orbit: 947 x 1265 km, 63.7° (Epoch: 13 February)

Event Time Altitude Azimuth Distance (km) Brightness Sun altitude
Rises 21:07:36 0° 309° (NW) 4,182 6.6 -40.8°
Reaches altitude 10° 21:10:34 10° 314° (NW) 3,183 5.8 -41.2°
Enters shadow 21:15:03 35° 335° (NNW) 1,837 4.1 -41.8°
